SCP
0 0 0 0 0 0 0 0 0 0 0 0 0 0 0 1 1 1 1 1 1 1 1 0 0 0 1 1 1 1 1 1 0 0 0 0 0 0 0 0 0 0 0 0
0 0 0 0 0 0 0 0 0 0 0 0 0 0 0 1 1 1 1 1 1 1 1 1 1 0 0 0 1 1 1 0 0 0 0 0 0 0 0 0 0 0 0 0
0 0 0 0 0 0 0 0 0 0 0 0 0 0 0 0 0 1 1 1 1 1 1 1 1 1 0 0 0 0 0 0 0 0 0 0 0 0 0 0 0 0 0 0
0 0 0 0 0 0 0 0 0 0 0 0 0 0 0 0 0 0 1 1 1 1 1 1 1 1 0 0 0 0 0 0 0 0 0 0 0 0 0 0 0 0 0 0
0 0 0 0 0 0 0 0 0 0 0 0 0 0 0 0 0 0 0 1 1 1 1 1 1 1 0 0 0 0 0 0 0 0 0 0 0 0 0 0 0 0 0 0
0 0 0 0 0 0 0 0 0 0 0 0 0 0 0 0 0 0 0 0 1 1 1 1 1 1 0 0 0 0 0 0 0 0 0 0 0 0 0 0 0 0 0 0
0 0 0 0 0 0 0 0 0 0 0 0 0 0 0 0 0 0 0 0 1 1 1 1 0 0 0 0 0 0 0 0 0 0 0 0 0 0 0 0 0 0 0 0
0 0 0 0 0 0 0 0 0 0 0 0 0 0 0 0 0 0 0 0 1 1 1 1 0 0 0 0 0 0 0 0 0 0 0 0 0 0 0 0 0 0 0 0
0 0 0 0 0 0 0 0 0 0 0 0 0 0 0 0 0 0 0 1 1 1 1 1 0 0 0 0 0 0 0 0 0 0 0 0 0 0 0 0 0 0 0 0
0 0 0 0 0 0 0 0 0 0 0 0 0 0 0 0 0 0 0 0 1 1 1 0 0 0 0 0 0 0 0 0 0 0 0 0 0 0 0 0 0 0 0 0
0 0 0 0 0 0 0 0 0 0 0 0 0 0 0 0 0 0 0 0 0 1 1 0 0 0 0 0 0 0 0 0 0 0 0 0 0 0 0 0 0 0 0 0
0 0 0 0 0 0 0 0 0 0 0 0 0 0 0 0 0 0 0 0 0 0 0 0 0 0 0 0 0 0 0 0 0 0 0 0 0 0 0 0 0 0 0 0
0 0 0 0 0 0 0 0 0 0 0 0 0 0 0 0 0 0 0 0 0 0 0 0 0 0 0 0 0 0 0 0 0 0 0 0 0 0 0 0 0 0 0 0
0 0 0 0 0 0 0 0 0 0 0 0 0 0 0 0 0 0 0 0 0 0 0 0 0 0 0 0 0 0 0 0 0 0 0 0 0 0 0 0 0 0 0 0
0 0 0 0 0 0 0 0 0 0 0 0 0 0 0 0 0 0 0 0 0 0 0 0 0 0 0 0 0 0 0 0 0 0 0 0 -0 -0 0 0 0 0 0 0
0 0 0 0 0 0 0 0 0 0 0 0 0 0 0 0 0 0 0 0 0 0 0 0 0 0 0 0 0 0 0 0 0 0 0 0 -0 -0 0 0 0 0 0 0
0 0 0 0 0 0 0 0 0 0 0 0 0 0 0 0 0 0 0 0 0 0 0 0 0 0 0 0 0 0 0 0 0 0 0 0 0 0 0 0 0 0 0 0
0 0 0 0 0 0 0 0 0 0 0 0 0 0 0 0 0 0 0 0 0 0 0 0 0 0 0 0 0 0 0 0 0 0 0 0 0 0 0 0 0 0 0 0
0 0 0 0 0 0 0 0 0 0 0 0 0 0 0 0 0 0 0 0 0 0 0 0 0 0 0 0 0 0 0 0 0 0 0 0 0 0 0 0 0 0 0 0
0 0 0 0 0 0 0 0 0 0 0 0 0 0 0 0 0 0 0 0 0 0 0 0 0 0 0 0 0 0 0 0 0 0 0 0 0 0 0 0 0 0 0 0
0 0 0 0 0 0 0 0 0 0 0 0 0 0 0 0 0 0 0 0 0 0 0 0 0 0 0 0 0 0 0 0 0 0 0 0 0 0 0 0 0 0 0 0
0 0 0 0 0 0 0 0 0 0 0 0 0 0 0 0 0 0 0 0 0 0 0 0 0 0 0 0 0 0 0 0 0 0 0 0 0 0 0 0 0 0 0 0
0 0 0 0 0 0 0 0 0 0 0 0 0 0 0 0 0 0 0 0 0 0 0 0 0 0 0 0 0 0 0 0 0 0 0 0 0 0 0 0 0 0 -0 -0
0 0 0 0 0 0 0 0 0 0 0 0 0 0 0 0 0 0 0 0 0 0 0 0 0 0 0 0 0 0 0 0 0 0 0 0 0 0 0 0 0 0 0 0
0 0 0 0 0 0 0 0 0 0 0 0 0 0 0 0 0 0 0 0 0 0 0 0 0 0 0 0 0 0 0 0 0 0 0 0 0 0 0 0 0 0 0 0
0 0 0 0 0 0 0 0 0 0 0 0 0 0 0 0 0 0 0 0 0 0 0 0 0 0 0 0 0 0 -0 0 0 0 0 0 0 0 0 0 0 0 0 0
Wind_Speed
1 2 3 7 6 6 3 2 3 5 3 2 5 7 9 9 9 10 9 8 8 8 6 6 6 6 6 6 6 5 6 4 4 3 3 3 2 2 1 2 3 3 3 3
3 5 10 6 4 4 2 2 3 4 2 2 4 4 5 8 9 11 12 11 9 8 7 7 6 5 5 5 5 6 5 4 4 3 2 2 2 2 2 1 2 3 3 3
7 9 6 5 5 4 4 5 5 3 2 3 5 1 2 3 5 8 9 11 11 12 11 9 8 6 6 5 5 5 4 4 4 4 3 3 3 3 2 2 2 2 3 3
7 9 7 7 7 6 5 7 6 3 1 1 2 2 4 6 5 7 9 9 11 11 10 9 8 7 6 5 5 5 4 4 4 4 4 5 3 2 1 1 1 2 3 3
7 5 4 6 7 5 6 6 4 3 2 1 1 2 5 4 5 7 9 10 10 10 10 10 9 8 7 6 6 5 4 4 4 4 4 4 4 3 2 2 3 3 3 3
8 6 4 6 5 4 3 4 5 5 4 1 3 3 5 4 7 8 9 10 10 10 10 8 7 7 6 6 5 5 5 4 4 4 4 5 5 5 4 3 2 2 2 2
5 5 3 2 1 3 4 6 4 5 3 4 3 2 5 4 5 7 10 10 10 10 10 9 10 9 8 7 6 5 6 5 4 4 4 4 5 5 4 3 2 1 1 2
1 5 3 1 4 4 2 8 7 4 3 3 2 2 5 3 1 3 5 8 10 10 10 10 10 9 9 9 8 7 6 5 4 4 4 4 4 3 3 3 2 1 0 1
4 5 4 1 2 6 3 3 7 7 2 0 3 3 5 4 4 4 5 8 9 9 8 9 9 8 8 7 7 7 7 5 4 4 4 4 4 4 3 2 2 1 0 1
4 2 3 2 3 3 5 5 5 5 3 1 2 3 3 2 2 4 6 7 8 8 8 8 7 7 7 6 6 6 6 6 4 4 4 4 4 3 3 2 2 1 1 2
3 2 3 2 1 2 2 2 4 4 5 5 3 5 5 6 6 6 7 7 8 8 8 8 6 6 6 6 6 6 6 5 5 5 5 4 3 3 2 1 1 1 1 2
2 4 1 4 4 3 4 5 6 5 3 4 4 6 2 4 5 6 7 7 7 8 8 7 7 6 6 6 6 6 5 5 5 5 5 4 3 3 2 1 1 1 1 1
4 5 2 6 6 4 1 1 4 5 4 3 4 5 0 3 3 5 8 8 7 7 8 7 6 6 6 5 5 5 5 5 5 5 5 4 3 2 2 1 1 1 1 2
6 4 5 6 6 3 2 3 2 5 4 3 5 5 3 3 5 5 7 8 8 7 7 7 6 5 5 5 5 5 4 4 5 5 5 4 3 2 2 1 1 1 1 1
6 3 2 3 4 2 3 3 1 3 6 6 6 6 7 7 8 8 8 8 8 8 7 7 7 6 6 6 5 4 4 4 5 5 4 3 2 2 2 1 1 1 1 1
4 3 1 2 3 3 3 2 1 2 3 5 5 3 4 6 6 7 8 8 8 8 8 7 7 8 8 7 6 5 4 5 5 5 4 3 2 2 2 1 1 1 1 2
3 4 3 2 4 4 3 3 2 3 3 5 5 5 7 8 8 9 9 9 9 9 8 8 7 7 8 7 7 6 5 5 5 5 4 3 3 2 1 1 2 1 1 1
6 4 3 0 3 1 4 2 4 6 2 2 4 7 10 9 7 6 6 8 8 8 8 7 6 6 6 6 6 6 6 5 5 4 4 3 3 3 2 1 1 0 0 0
6 6 4 3 1 2 3 2 1 5 1 1 7 9 7 8 6 2 3 6 8 8 7 7 6 6 6 6 6 6 5 5 5 4 4 3 3 2 2 1 1 1 0 0
4 5 5 3 2 3 5 3 1 7 1 1 6 9 9 8 4 4 5 6 7 7 7 7 6 6 6 5 6 6 5 5 5 4 4 3 3 3 2 2 1 1 1 1
2 3 3 3 2 5 5 3 1 3 5 4 6 7 7 4 5 5 7 6 7 7 7 7 7 6 6 6 6 6 5 5 4 4 3 3 3 3 3 2 1 1 1 1
4 4 3 4 3 7 3 1 3 6 4 6 6 6 6 6 6 7 8 8 8 7 7 7 6 5 4 5 6 6 5 4 4 3 3 2 2 2 2 2 1 1 1 0
3 6 6 6 7 5 1 4 3 6 7 6 6 6 9 8 7 7 8 8 7 7 6 5 6 5 3 4 6 6 4 4 4 3 3 2 1 1 1 2 1 1 0 1
1 3 4 2 1 1 2 3 3 6 7 7 8 9 8 9 9 8 8 7 7 5 6 5 6 6 4 4 4 5 4 4 4 4 2 2 1 1 1 1 1 1 2 1
3 2 3 2 2 3 1 4 6 7 9 9 8 8 9 10 9 8 7 7 6 5 4 5 6 6 5 4 4 4 4 4 4 3 2 1 1 1 1 1 2 3 4 5
3 5 7 6 8 6 5 4 8 10 9 10 9 8 8 9 9 8 7 6 6 6 5 5 5 5 5 5 4 4 4 5 4 3 2 2 1 1 1 1 2 4 5 7
Wind_Direction
292 82 239 234 207 204 217 227 257 266 260 140 163 166 175 170 156 156 155 156 153 157 152 145 151 142 127 122 119 120 120 123 119 114 114 108 101 86 69 72 64 55 52 59
4 264 239 235 236 245 243 244 269 300 291 143 135 156 177 171 172 171 165 158 155 152 147 154 154 147 137 135 133 130 131 130 130 127 124 122 121 106 99 64 49 45 50 46
215 242 238 224 235 231 228 202 214 229 345 55 104 86 187 184 164 168 165 158 155 160 159 164 157 148 139 135 142 140 132 125 125 119 104 92 77 62 50 38 30 23 40 48
244 245 237 228 230 193 230 224 200 191 97 298 112 196 235 192 176 172 169 165 166 167 161 161 158 154 150 144 129 121 119 112 113 115 118 121 123 121 134 107 49 27 28 33
261 246 227 227 227 190 213 205 188 184 150 46 2 135 266 169 192 197 180 176 174 168 161 161 162 157 148 138 128 120 114 105 101 104 115 116 111 114 106 82 65 45 26 25
255 253 215 219 232 188 148 82 44 51 68 338 250 180 256 209 203 196 181 179 175 166 160 155 151 142 135 130 127 124 120 111 107 104 102 110 113 110 105 88 71 41 19 11
300 294 261 214 328 355 87 91 41 11 13 259 261 192 250 249 194 182 182 180 172 163 158 156 153 149 149 145 139 133 125 115 106 102 99 107 112 113 113 113 99 68 29 6
247 290 277 201 178 177 167 132 149 184 215 273 313 240 268 281 164 140 159 158 152 156 160 161 158 155 158 153 147 141 133 125 118 108 101 100 103 104 103 104 110 100 102 295
195 259 290 285 158 138 137 156 162 138 134 351 286 294 307 351 65 106 125 133 142 148 152 156 156 156 155 150 149 147 139 129 122 117 107 96 93 96 97 97 97 99 358 322
163 246 294 293 55 48 141 146 99 110 142 230 271 262 253 265 220 136 138 146 144 144 143 142 146 151 150 146 141 137 134 130 123 116 113 110 104 102 108 105 92 52 350 354
140 161 306 2 127 197 95 102 113 123 152 162 221 256 222 196 189 171 164 150 147 149 147 144 141 144 139 134 132 129 129 124 122 121 118 115 110 103 103 97 84 63 6 356
147 123 250 261 250 193 161 173 149 150 208 172 174 255 260 175 173 157 148 145 145 144 142 138 135 130 133 139 139 137 138 136 136 134 130 130 125 114 104 86 46 43 18 354
121 105 55 344 343 5 43 191 154 138 127 155 168 247 216 133 135 143 143 143 142 138 139 133 132 135 141 139 137 140 143 143 140 136 135 132 127 124 123 97 43 27 26 18
105 104 150 195 230 246 291 303 161 126 139 184 198 197 200 170 152 141 142 143 142 143 143 143 143 146 148 145 143 146 146 141 139 138 139 141 152 156 144 124 79 43 39 40
96 121 191 230 253 256 273 291 240 156 170 178 196 189 199 186 166 155 148 146 145 143 143 150 151 150 147 141 144 147 146 144 145 143 144 161 160 141 124 113 93 49 32 40
94 130 88 320 315 334 341 339 62 116 134 145 147 194 195 160 140 143 148 152 154 156 157 158 157 154 152 150 152 148 150 156 150 150 157 156 144 138 130 125 97 52 33 28
123 118 103 286 314 5 336 311 112 113 134 151 180 190 150 143 156 165 166 166 168 165 162 162 169 164 160 161 159 157 160 155 149 152 155 149 148 139 131 111 93 68 25 41
135 118 124 130 27 289 263 313 119 122 119 136 140 149 156 157 157 158 161 164 164 164 160 159 166 159 156 154 151 149 150 149 149 153 155 151 148 142 135 113 106 343 351 30
142 136 124 121 141 267 299 313 149 125 82 144 136 138 139 129 105 105 175 163 164 162 159 161 158 149 146 149 150 144 151 151 151 156 159 156 151 156 159 163 225 226 158 289
85 108 118 129 150 224 241 272 115 99 62 248 142 147 149 139 145 205 179 152 143 142 144 144 141 135 141 149 144 142 150 151 161 168 168 167 163 168 180 200 216 223 195 238
80 71 122 154 188 257 256 269 71 126 220 189 150 150 148 159 182 161 140 135 132 132 136 136 136 140 150 147 140 144 148 163 175 168 163 167 173 183 195 204 217 210 225 289
160 153 170 150 178 247 259 117 157 191 164 137 134 142 131 123 117 122 127 129 128 126 128 133 138 145 153 148 141 142 159 170 160 155 158 173 189 205 184 180 234 233 190 272
171 180 167 175 206 231 179 153 171 148 132 135 136 141 132 123 125 126 130 131 132 135 137 138 143 145 152 155 146 151 171 162 150 146 155 178 197 220 196 179 207 246 255 234
270 121 110 107 221 172 123 111 119 129 129 133 135 136 133 132 136 135 138 137 137 141 142 141 142 148 157 161 155 162 167 157 149 155 175 192 181 264 284 236 209 213 231 236
205 117 106 125 170 95 71 132 129 115 117 120 122 125 133 132 135 138 141 144 146 146 144 143 149 155 163 161 161 166 164 154 153 170 189 199 208 218 267 273 243 231 235 220
213 165 160 196 197 166 182 163 131 126 131 135 127 123 129 136 140 137 142 147 148 150 148 148 153 158 164 164 168 176 173 164 162 175 197 211 227 242 240 260 304 296 264 265